Pocatello, ID

5:06 PM MDT on July 23, 2017 (GMT -0600)
Pocatello Regional

Weather History for KPIH - February, 2012

Change the Weather History Date:

Thursday, February 23, 2012

  Actual Average Record
Temperature  
Mean Temperature 32 °F 31 °F  
Max Temperature 40 °F 40 °F 58 °F (1995)
Min Temperature 24 °F 21 °F -5 °F (1955)
Degree Days  
Heating Degree Days 33 34  
Month to date heating degree days 761 861  
Since 1 July heating degree days 4772 5108  
Cooling Degree Days 0 0  
Month to date cooling degree days 0 0  
Year to date cooling degree days 0 0  
Moisture  
Dew Point 17 °F    
Average Humidity 56    
Maximum Humidity 81    
Minimum Humidity 30    
Precipitation  
Precipitation T in 0.04 in 0.33 in (2017)
Month to date precipitation 0.39 0.78  
Year to date precipitation 2.03 1.77  
Snow  
Snow T in - - ()
Month to date snowfall 2.2  
Since 1 July snowfall 10.0  
Snow Depth 0.00 in    
Sea Level Pressure  
Sea Level Pressure 30.14 in    
Wind  
Wind Speed 14 mph (SW)    
Max Wind Speed 26 mph    
Max Gust Speed 35 mph    
Visibility 10 miles    
Events      
T = Trace of Precipitation, MM = Missing Value Source: NWS Daily Summary

Daily Weather History Graph

Daily Weather History Graph

Search for Another Location

Airport or City:

Trip Planner

Search our weather history database for the weather conditions in past years. The results will help you decide how hot, cold, wet, or windy it might be!

Date:

Astronomy

Feb. 23, 2012 Rise Set
Actual Time 7:16 AM MST 6:11 PM MST
Civil Twilight 6:47 AM MST 6:40 PM MST
Nautical Twilight 6:14 AM MST 7:13 PM MST
Astronomical Twilight 5:42 AM MST 7:46 PM MST
Moon 7:40 AM MST 8:26 PM MST
Length of Visible Light 11h 52m
Length of Day
10h 55m
Waxing Crescent, 3% of the Moon is Illuminated
Feb 23
Waxing Crescent
Feb 29
First Quarter
Mar 8
Full
Mar 14
Last Quarter
Mar 22
New

Hourly Weather History & Observations

Time (MST) Temp. Windchill Dew Point Humidity Pressure Visibility Wind Dir Wind Speed Gust Speed Precip Events Conditions
12:53 AM 30.9 °F 26.2 °F 19.9 °F 64% 29.93 in 10.0 mi SE 4.6 mph - 0.00 in   Overcast
1:53 AM 28.9 °F 25.2 °F 18.0 °F 64% 29.96 in 10.0 mi SE 3.5 mph - N/A   Partly Cloudy
2:53 AM 28.9 °F 18.6 °F 19.9 °F 69% 29.99 in 10.0 mi WSW 12.7 mph - N/A   Mostly Cloudy
3:53 AM 28.0 °F 17.0 °F 19.0 °F 69% 30.01 in 10.0 mi SW 13.8 mph - N/A   Partly Cloudy
4:53 AM 26.1 °F 16.8 °F 18.0 °F 71% 30.05 in 10.0 mi SW 9.2 mph - N/A   Clear
5:53 AM 27.0 °F 16.1 °F 18.0 °F 69% 30.07 in 10.0 mi WSW 12.7 mph - N/A   Clear
6:53 AM 25.0 °F 16.3 °F 19.0 °F 78% 30.10 in 10.0 mi SSW 8.1 mph - N/A   Clear
7:53 AM 26.1 °F 15.6 °F 19.0 °F 75% 30.14 in 10.0 mi SSW 11.5 mph - N/A   Partly Cloudy
8:53 AM 28.9 °F 16.1 °F 19.0 °F 67% 30.16 in 10.0 mi SW 19.6 mph - N/A   Partly Cloudy
9:53 AM 30.9 °F 20.7 °F 19.0 °F 61% 30.17 in 10.0 mi SW 13.8 mph - N/A   Partly Cloudy
10:53 AM 33.1 °F 23.9 °F 19.9 °F 59% 30.17 in 10.0 mi SW 12.7 mph 23.0 mph N/A   Partly Cloudy
11:53 AM 37.0 °F 27.4 °F 19.9 °F 50% 30.18 in 10.0 mi SW 17.3 mph 27.6 mph N/A   Scattered Clouds
12:53 PM 37.9 °F 28.5 °F 10.0 °F 32% 30.16 in 10.0 mi WSW 17.3 mph 24.2 mph N/A   Scattered Clouds
1:53 PM 39.9 °F 31.1 °F 10.0 °F 29% 30.15 in 10.0 mi WSW 17.3 mph 24.2 mph N/A   Scattered Clouds
2:53 PM 39.0 °F 29.3 °F 10.9 °F 32% 30.16 in 10.0 mi WSW 19.6 mph 25.3 mph N/A   Scattered Clouds
3:53 PM 37.0 °F 25.6 °F 14.0 °F 39% 30.17 in 10.0 mi WSW 24.2 mph 32.2 mph N/A   Mostly Cloudy
4:53 PM 34.0 °F 23.0 °F 17.1 °F 50% 30.19 in 10.0 mi WSW 18.4 mph 27.6 mph N/A   Mostly Cloudy
5:53 PM 33.1 °F 21.2 °F 17.1 °F 52% 30.20 in 10.0 mi SW 20.7 mph - N/A   Scattered Clouds
6:53 PM 30.9 °F 21.7 °F 19.0 °F 61% 30.22 in 10.0 mi SW 11.5 mph - N/A   Scattered Clouds
7:53 PM 30.0 °F 19.5 °F 18.0 °F 61% 30.24 in 10.0 mi SSW 13.8 mph - N/A   Clear
8:53 PM 28.9 °F 18.2 °F 18.0 °F 64% 30.25 in 10.0 mi SSW 13.8 mph 21.9 mph N/A   Clear
9:53 PM 28.0 °F 17.5 °F 17.1 °F 63% 30.25 in 10.0 mi SSW 12.7 mph - N/A   Clear
10:53 PM 26.1 °F 16.2 °F 17.1 °F 69% 30.25 in 10.0 mi South 10.4 mph - N/A   Clear
11:53 PM 28.0 °F 17.5 °F 16.0 °F 61% 30.24 in 10.0 mi SSW 12.7 mph - N/A   Clear